Station Historical Data
Daily Summary for July 4, 2017 Units:  English    Metric   Both
« Previous Day
Next Day »
Daily Weekly Monthly Yearly Custom
  High: Low: Average:
Temperature: 87.4 °F 67.4 °F 75.7 °F
Dew Point: 60.0 °F 47.5 °F 53.6 °F
Humidity: 63 % 32 % 47 %
Wind Speed: 14.0 mph 0.0 mph 3 mph
Wind Gust: 16.0 mph - -
Wind:- - SSE
Pressure: 29.98 in 29.92 in -
Precipitation: 0.00 in    
Historical Graphs
 
 
Tabular Data for July 4, 2017
Time Temperature Dew Point Pressure Wind Wind Speed Wind Gust Humidity Rainfall Rate (Hourly) solar
00:00 70.1 °F 51.7 °F 29.95 in East 2.0 mph 12.0 mph 52 % 0.00 in 0.00 W/m2
00:05 70.1 °F 51.7 °F 29.95 in ESE 2.0 mph 11.0 mph 52 % 0.00 in 0.00 W/m2
00:10 70.1 °F 51.7 °F 29.95 in East 9.0 mph 12.0 mph 52 % 0.00 in 0.00 W/m2
00:15 70.2 °F 51.8 °F 29.95 in ESE 6.0 mph 11.0 mph 52 % 0.00 in 0.00 W/m2
00:20 70.1 °F 51.7 °F 29.95 in Calm   12.0 mph 52 % 0.00 in 0.00 W/m2
00:25 70.2 °F 51.8 °F 29.95 in ESE 4.0 mph 11.0 mph 52 % 0.00 in 0.00 W/m2
00:30 70.1 °F 51.7 °F 29.95 in East 4.0 mph 16.0 mph 52 % 0.00 in 0.00 W/m2
00:35 70.1 °F 51.7 °F 29.95 in East 5.0 mph 14.0 mph 52 % 0.00 in 0.00 W/m2
00:36 70.1 °F 51.7 °F 29.95 in East 2.0 mph 6.0 mph 52 % 0.00 in 0.00 W/m2
00:41 70.1 °F 51.7 °F 29.95 in ESE 7.0 mph 8.0 mph 52 % 0.00 in 0.00 W/m2
00:46 70.1 °F 51.7 °F 29.95 in ESE 9.0 mph 9.0 mph 52 % 0.00 in 0.00 W/m2
00:51 70.0 °F 51.6 °F 29.95 in East 1.0 mph 8.0 mph 52 % 0.00 in 0.00 W/m2
00:56 70.0 °F 51.6 °F 29.95 in ESE 2.0 mph 7.0 mph 52 % 0.00 in 0.00 W/m2
01:01 69.9 °F 51.5 °F 29.95 in East 1.0 mph 6.0 mph 52 % 0.00 in 0.00 W/m2
01:06 69.9 °F 51.5 °F 29.95 in East 4.0 mph 11.0 mph 52 % 0.00 in 0.00 W/m2
01:11 69.8 °F 51.4 °F 29.95 in Calm   8.0 mph 52 % 0.00 in 0.00 W/m2
01:16 69.8 °F 51.4 °F 29.95 in East 14.0 mph 14.0 mph 52 % 0.00 in 0.00 W/m2
01:21 69.7 °F 51.3 °F 29.95 in ESE 1.0 mph 6.0 mph 52 % 0.00 in 0.00 W/m2
01:26 69.7 °F 51.3 °F 29.95 in Calm   6.0 mph 52 % 0.00 in 0.00 W/m2
01:31 69.6 °F 51.2 °F 29.95 in Calm   11.0 mph 52 % 0.00 in 0.00 W/m2
01:36 69.5 °F 51.6 °F 29.95 in East 2.0 mph 9.0 mph 53 % 0.00 in 0.00 W/m2
01:41 69.5 °F 51.6 °F 29.94 in East 9.0 mph 9.0 mph 53 % 0.00 in 0.00 W/m2
01:46 69.5 °F 51.6 °F 29.94 in ESE 5.0 mph 13.0 mph 53 % 0.00 in 0.00 W/m2
01:51 69.5 °F 51.1 °F 29.94 in Calm   9.0 mph 52 % 0.00 in 0.00 W/m2
01:56 69.5 °F 51.1 °F 29.94 in ESE 5.0 mph 12.0 mph 52 % 0.00 in 0.00 W/m2
01:57 69.5 °F 51.1 °F 29.94 in East 11.0 mph 12.0 mph 52 % 0.00 in 0.00 W/m2
02:02 69.5 °F 51.1 °F 29.94 in ESE 2.0 mph 11.0 mph 52 % 0.00 in 0.00 W/m2
02:07 69.5 °F 51.1 °F 29.94 in ESE 9.0 mph 14.0 mph 52 % 0.00 in 0.00 W/m2
02:12 69.5 °F 51.1 °F 29.94 in ESE 6.0 mph 15.0 mph 52 % 0.00 in 0.00 W/m2
02:17 69.5 °F 50.6 °F 29.94 in Calm   12.0 mph 51 % 0.00 in 0.00 W/m2
02:22 69.5 °F 51.1 °F 29.94 in East 11.0 mph 11.0 mph 52 % 0.00 in 0.00 W/m2
02:27 69.4 °F 51.0 °F 29.94 in Calm   9.0 mph 52 % 0.00 in 0.00 W/m2
02:32 69.4 °F 51.0 °F 29.94 in ESE 5.0 mph 11.0 mph 52 % 0.00 in 0.00 W/m2
02:37 69.3 °F 50.9 °F 29.94 in ESE 7.0 mph 12.0 mph 52 % 0.00 in 0.00 W/m2
02:42 69.2 °F 50.3 °F 29.94 in ESE 5.0 mph 8.0 mph 51 % 0.00 in 0.00 W/m2
02:47 69.2 °F 50.8 °F 29.93 in ESE 6.0 mph 6.0 mph 52 % 0.00 in 0.00 W/m2
02:52 69.2 °F 50.8 °F 29.93 in ESE 5.0 mph 11.0 mph 52 % 0.00 in 0.00 W/m2
02:57 69.1 °F 50.8 °F 29.93 in ESE 2.0 mph 6.0 mph 52 % 0.00 in 0.00 W/m2
03:02 69.0 °F 51.7 °F 29.93 in East 6.0 mph 6.0 mph 54 % 0.00 in 0.00 W/m2
03:07 68.8 °F 51.5 °F 29.93 in Calm   5.0 mph 54 % 0.00 in 0.00 W/m2
03:12 68.6 °F 51.3 °F 29.93 in East 4.0 mph 12.0 mph 54 % 0.00 in 0.00 W/m2
03:17 68.4 °F 51.6 °F 29.93 in Calm   8.0 mph 55 % 0.00 in 0.00 W/m2
03:18 68.3 °F 51.5 °F 29.93 in Calm   11.0 mph 55 % 0.00 in 0.00 W/m2
03:23 68.1 °F 50.8 °F 29.93 in East 6.0 mph 11.0 mph 54 % 0.00 in 0.00 W/m2
03:28 67.9 °F 51.2 °F 29.93 in ESE 5.0 mph 11.0 mph 55 % 0.00 in 0.00 W/m2
03:33 67.7 °F 51.0 °F 29.93 in East 7.0 mph 9.0 mph 55 % 0.00 in 0.00 W/m2
03:38 67.6 °F 50.9 °F 29.93 in East 6.0 mph 11.0 mph 55 % 0.00 in 0.00 W/m2
03:43 67.5 °F 50.8 °F 29.93 in East 8.0 mph 11.0 mph 55 % 0.00 in 0.00 W/m2
03:48 67.4 °F 50.7 °F 29.93 in ESE 6.0 mph 11.0 mph 55 % 0.00 in 0.00 W/m2
03:53 67.4 °F 50.7 °F 29.93 in East 4.0 mph 11.0 mph 55 % 0.00 in 0.00 W/m2
03:58 67.4 °F 50.7 °F 29.93 in East 7.0 mph 9.0 mph 55 % 0.00 in 0.00 W/m2
04:03 67.4 °F 50.2 °F 29.93 in East 5.0 mph 12.0 mph 54 % 0.00 in 0.00 W/m2
04:08 67.5 °F 50.3 °F 29.93 in ESE 6.0 mph 12.0 mph 54 % 0.00 in 0.00 W/m2
04:13 67.5 °F 50.3 °F 29.93 in ESE 6.0 mph 9.0 mph 54 % 0.00 in 0.00 W/m2
04:18 67.6 °F 50.4 °F 29.92 in East 6.0 mph 12.0 mph 54 % 0.00 in 0.00 W/m2
04:23 67.6 °F 49.9 °F 29.93 in East 6.0 mph 9.0 mph 53 % 0.00 in 0.00 W/m2
04:29 67.7 °F 50.0 °F 29.93 in East 4.0 mph 11.0 mph 53 % 0.00 in 0.00 W/m2
04:34 67.7 °F 50.0 °F 29.93 in East 4.0 mph 12.0 mph 53 % 0.00 in 0.00 W/m2
04:39 67.8 °F 50.1 °F 29.93 in East 13.0 mph 13.0 mph 53 % 0.00 in 0.00 W/m2
04:44 67.8 °F 50.1 °F 29.93 in Calm   14.0 mph 53 % 0.00 in 0.00 W/m2
04:49 67.7 °F 50.0 °F 29.93 in East 6.0 mph 12.0 mph 53 % 0.00 in 0.00 W/m2
04:54 67.8 °F 49.5 °F 29.93 in ESE 8.0 mph 11.0 mph 52 % 0.00 in 0.00 W/m2
04:59 67.8 °F 49.5 °F 29.93 in ESE 2.0 mph 12.0 mph 52 % 0.00 in 0.00 W/m2
05:04 67.8 °F 49.5 °F 29.93 in ESE 11.0 mph 12.0 mph 52 % 0.00 in 0.00 W/m2
05:09 67.8 °F 50.1 °F 29.93 in ESE 9.0 mph 13.0 mph 53 % 0.00 in 0.00 W/m2
05:14 67.9 °F 50.2 °F 29.93 in ESE 4.0 mph 12.0 mph 53 % 0.00 in 0.00 W/m2
05:19 68.0 °F 50.2 °F 29.93 in ESE 9.0 mph 13.0 mph 53 % 0.00 in 0.00 W/m2
05:24 68.0 °F 50.2 °F 29.93 in East 8.0 mph 14.0 mph 53 % 0.00 in 0.00 W/m2
05:29 68.0 °F 50.2 °F 29.93 in ESE 14.0 mph 14.0 mph 53 % 0.00 in 0.00 W/m2
05:34 68.1 °F 50.3 °F 29.93 in ESE 7.0 mph 14.0 mph 53 % 0.00 in 0.00 W/m2
05:39 68.1 °F 50.3 °F 29.93 in ESE 8.0 mph 15.0 mph 53 % 0.00 in 0.00 W/m2
05:44 68.1 °F 50.3 °F 29.93 in East 7.0 mph 14.0 mph 53 % 0.00 in 5.00 W/m2
05:49 68.1 °F 50.3 °F 29.93 in ESE 5.0 mph 14.0 mph 53 % 0.00 in 7.00 W/m2
05:54 68.2 °F 50.4 °F 29.93 in East 7.0 mph 12.0 mph 53 % 0.00 in 11.00 W/m2
05:59 68.2 °F 50.4 °F 29.93 in ESE 11.0 mph 12.0 mph 53 % 0.00 in 12.00 W/m2
06:04 68.2 °F 50.9 °F 29.93 in ESE 8.0 mph 13.0 mph 54 % 0.00 in 16.00 W/m2
06:09 68.3 °F 51.0 °F 29.93 in ESE 5.0 mph 11.0 mph 54 % 0.00 in 18.00 W/m2
06:14 68.3 °F 51.0 °F 29.93 in ESE 5.0 mph 15.0 mph 54 % 0.00 in 19.00 W/m2
06:19 68.3 °F 51.0 °F 29.93 in Calm   13.0 mph 54 % 0.00 in 30.00 W/m2
06:25 68.3 °F 51.0 °F 29.93 in East 5.0 mph 14.0 mph 54 % 0.00 in 40.00 W/m2
06:30 68.4 °F 51.6 °F 29.94 in ESE 12.0 mph 13.0 mph 55 % 0.00 in 47.00 W/m2
06:35 68.4 °F 51.6 °F 29.94 in East 5.0 mph 13.0 mph 55 % 0.00 in 63.00 W/m2
06:40 68.4 °F 51.6 °F 29.94 in Calm   13.0 mph 55 % 0.00 in 76.00 W/m2
06:45 68.4 °F 51.6 °F 29.94 in ESE 9.0 mph 13.0 mph 55 % 0.00 in 90.00 W/m2
06:50 68.5 °F 52.2 °F 29.94 in ESE 2.0 mph 14.0 mph 56 % 0.00 in 104.00 W/m2
06:55 68.5 °F 52.2 °F 29.94 in ESE 12.0 mph 15.0 mph 56 % 0.00 in 123.00 W/m2
07:00 68.5 °F 52.2 °F 29.94 in ESE 4.0 mph 12.0 mph 56 % 0.00 in 141.00 W/m2
07:05 68.5 °F 52.7 °F 29.94 in ESE 8.0 mph 14.0 mph 57 % 0.00 in 162.00 W/m2
07:10 68.5 °F 52.7 °F 29.95 in ESE 2.0 mph 13.0 mph 57 % 0.00 in 181.00 W/m2
07:15 68.6 °F 52.8 °F 29.95 in Calm   13.0 mph 57 % 0.00 in 202.00 W/m2
07:20 68.6 °F 53.2 °F 29.94 in East 7.0 mph 15.0 mph 58 % 0.00 in 220.00 W/m2
07:25 68.6 °F 53.2 °F 29.95 in ESE 5.0 mph 9.0 mph 58 % 0.00 in 239.00 W/m2
07:30 68.7 °F 53.8 °F 29.95 in ESE 11.0 mph 12.0 mph 59 % 0.00 in 255.00 W/m2
07:35 68.7 °F 53.8 °F 29.94 in East 4.0 mph 13.0 mph 59 % 0.00 in 272.00 W/m2
07:40 68.8 °F 53.9 °F 29.95 in Calm   13.0 mph 59 % 0.00 in 288.00 W/m2
07:45 68.9 °F 54.0 °F 29.95 in Calm   9.0 mph 59 % 0.00 in 309.00 W/m2
07:50 69.0 °F 54.5 °F 29.95 in ESE 7.0 mph 11.0 mph 60 % 0.00 in 322.00 W/m2
07:55 69.1 °F 54.7 °F 29.95 in ESE 2.0 mph 9.0 mph 60 % 0.00 in 339.00 W/m2
08:00 69.2 °F 54.7 °F 29.95 in Calm   12.0 mph 60 % 0.00 in 353.00 W/m2
08:05 69.3 °F 55.3 °F 29.95 in ESE 4.0 mph 9.0 mph 61 % 0.00 in 373.00 W/m2
08:10 69.5 °F 55.5 °F 29.95 in Calm   9.0 mph 61 % 0.00 in 387.00 W/m2
08:15 69.6 °F 55.6 °F 29.96 in Calm   9.0 mph 61 % 0.00 in 403.00 W/m2
08:20 69.7 °F 56.1 °F 29.96 in ESE 5.0 mph 11.0 mph 62 % 0.00 in 417.00 W/m2
08:25 69.9 °F 56.3 °F 29.96 in ESE 1.0 mph 9.0 mph 62 % 0.00 in 434.00 W/m2
08:30 70.1 °F 56.5 °F 29.96 in ESE 4.0 mph 8.0 mph 62 % 0.00 in 450.00 W/m2
08:35 70.3 °F 56.7 °F 29.96 in SE 6.0 mph 9.0 mph 62 % 0.00 in 466.00 W/m2
08:40 70.5 °F 56.9 °F 29.96 in SE 4.0 mph 9.0 mph 62 % 0.00 in 482.00 W/m2
08:45 70.8 °F 57.6 °F 29.96 in SE 6.0 mph 8.0 mph 63 % 0.00 in 497.00 W/m2
08:46 70.8 °F 57.6 °F 29.96 in SE 2.0 mph 8.0 mph 63 % 0.00 in 497.00 W/m2
08:51 71.0 °F 57.3 °F 29.96 in Calm   6.0 mph 62 % 0.00 in 513.00 W/m2
08:56 71.3 °F 58.1 °F 29.96 in SE 7.0 mph 7.0 mph 63 % 0.00 in 527.00 W/m2
09:01 71.5 °F 58.3 °F 29.96 in Calm   7.0 mph 63 % 0.00 in 540.00 W/m2
09:06 71.8 °F 58.5 °F 29.96 in Calm   6.0 mph 63 % 0.00 in 555.00 W/m2
09:11 72.1 °F 58.4 °F 29.96 in Calm   6.0 mph 62 % 0.00 in 570.00 W/m2
09:16 72.3 °F 57.7 °F 29.96 in Calm   8.0 mph 60 % 0.00 in 584.00 W/m2
09:21 72.6 °F 57.5 °F 29.96 in ESE 6.0 mph 6.0 mph 59 % 0.00 in 598.00 W/m2
09:26 73.1 °F 58.4 °F 29.96 in Calm   6.0 mph 60 % 0.00 in 615.00 W/m2
09:31 73.5 °F 59.7 °F 29.96 in Calm   2.0 mph 62 % 0.00 in 629.00 W/m2
09:36 73.8 °F 60.0 °F 29.96 in SE 7.0 mph 8.0 mph 62 % 0.00 in 642.00 W/m2
09:41 74.2 °F 59.9 °F 29.96 in SE 4.0 mph 7.0 mph 61 % 0.00 in 650.00 W/m2
09:46 74.6 °F 57.9 °F 29.97 in SE 5.0 mph 9.0 mph 56 % 0.00 in 663.00 W/m2
09:51 75.0 °F 58.3 °F 29.97 in Calm   8.0 mph 56 % 0.00 in 677.00 W/m2
09:56 75.4 °F 59.1 °F 29.96 in Calm   4.0 mph 57 % 0.00 in 689.00 W/m2
10:01 75.7 °F 57.9 °F 29.97 in Calm     54 % 0.00 in 703.00 W/m2
10:06 76.0 °F 59.7 °F 29.97 in SSE 5.0 mph 7.0 mph 57 % 0.00 in 714.00 W/m2
10:11 76.2 °F 55.7 °F 29.97 in South 5.0 mph 6.0 mph 49 % 0.00 in 724.00 W/m2
10:16 76.6 °F 56.0 °F 29.97 in South 5.0 mph 5.0 mph 49 % 0.00 in 733.00 W/m2
10:21 77.1 °F 58.1 °F 29.97 in Calm     52 % 0.00 in 744.00 W/m2
10:26 77.5 °F 58.0 °F 29.97 in Calm     51 % 0.00 in 754.00 W/m2
10:31 77.9 °F 58.9 °F 29.97 in Calm     52 % 0.00 in 765.00 W/m2
10:36 78.3 °F 59.2 °F 29.97 in South 4.0 mph 8.0 mph 52 % 0.00 in 775.00 W/m2
10:41 78.7 °F 59.1 °F 29.97 in South 5.0 mph 6.0 mph 51 % 0.00 in 788.00 W/m2
10:46 79.0 °F 57.7 °F 29.97 in South 3.0 mph 4.0 mph 48 % 0.00 in 796.00 W/m2
10:51 79.4 °F 59.2 °F 29.97 in Calm   4.0 mph 50 % 0.00 in 809.00 W/m2
10:56 79.8 °F 57.8 °F 29.97 in Calm     47 % 0.00 in 814.00 W/m2
11:01 80.2 °F 58.2 °F 29.98 in SSW 5.0 mph 5.0 mph 47 % 0.00 in 824.00 W/m2
11:06 80.5 °F 57.8 °F 29.98 in SW 3.0 mph 6.0 mph 46 % 0.00 in 833.00 W/m2
11:11 80.9 °F 58.2 °F 29.98 in Calm     46 % 0.00 in 842.00 W/m2
11:16 81.1 °F 58.4 °F 29.98 in SSE 8.0 mph 11.0 mph 46 % 0.00 in 851.00 W/m2
11:21 81.3 °F 57.3 °F 29.98 in SSW 5.0 mph 7.0 mph 44 % 0.00 in 860.00 W/m2
11:26 81.6 °F 57.0 °F 29.98 in SW 1.0 mph 4.0 mph 43 % 0.00 in 868.00 W/m2
11:27 81.6 °F 57.0 °F 29.98 in Calm   4.0 mph 43 % 0.00 in 868.00 W/m2
11:32 82.0 °F 57.3 °F 29.98 in Calm   5.0 mph 43 % 0.00 in 872.00 W/m2
11:37 82.2 °F 56.8 °F 29.98 in South 7.0 mph 10.0 mph 42 % 0.00 in 881.00 W/m2
11:42 82.5 °F 57.1 °F 29.98 in SSE 7.0 mph 8.0 mph 42 % 0.00 in 891.00 W/m2
11:47 82.8 °F 56.7 °F 29.98 in WSW 6.0 mph 6.0 mph 41 % 0.00 in 895.00 W/m2
11:52 83.0 °F 56.9 °F 29.98 in Calm   2.0 mph 41 % 0.00 in 904.00 W/m2
11:57 83.3 °F 57.8 °F 29.98 in Calm   8.0 mph 42 % 0.00 in 912.00 W/m2
12:02 83.4 °F 57.9 °F 29.98 in SSW 2.0 mph 12.0 mph 42 % 0.00 in 919.00 W/m2
12:07 83.5 °F 57.3 °F 29.98 in WSW 2.0 mph 5.0 mph 41 % 0.00 in 919.00 W/m2
12:12 83.5 °F 56.7 °F 29.98 in Calm   7.0 mph 40 % 0.00 in 925.00 W/m2
12:17 83.6 °F 56.8 °F 29.98 in Calm   8.0 mph 40 % 0.00 in 926.00 W/m2
12:22 83.7 °F 56.1 °F 29.98 in SW 5.0 mph 5.0 mph 39 % 0.00 in 933.00 W/m2
12:27 83.8 °F 55.5 °F 29.98 in Calm   8.0 mph 38 % 0.00 in 937.00 W/m2
12:32 84.1 °F 54.3 °F 29.98 in SW 8.0 mph 11.0 mph 36 % 0.00 in 939.00 W/m2
12:37 84.5 °F 56.1 °F 29.98 in South 5.0 mph 8.0 mph 38 % 0.00 in 942.00 W/m2
12:42 85.0 °F 55.1 °F 29.98 in SSW 7.0 mph 12.0 mph 36 % 0.00 in 944.00 W/m2
12:47 85.5 °F 54.0 °F 29.98 in WSW 10.0 mph 13.0 mph 34 % 0.00 in 944.00 W/m2
12:52 85.8 °F 54.2 °F 29.98 in SSW 8.0 mph 14.0 mph 34 % 0.00 in 942.00 W/m2
12:57 86.0 °F 54.4 °F 29.98 in Calm   8.0 mph 34 % 0.00 in 944.00 W/m2
13:02 86.3 °F 53.8 °F 29.98 in Calm   3.0 mph 33 % 0.00 in 946.00 W/m2
13:07 86.5 °F 54.0 °F 29.97 in Calm   4.0 mph 33 % 0.00 in 942.00 W/m2
13:12 86.8 °F 55.1 °F 29.97 in Calm   9.0 mph 34 % 0.00 in 942.00 W/m2
13:17 87.2 °F 53.8 °F 29.97 in Calm   8.0 mph 32 % 0.00 in 939.00 W/m2
13:22 86.9 °F 53.5 °F 29.97 in SSW 8.0 mph 10.0 mph 32 % 0.00 in 939.00 W/m2
13:27 86.9 °F 54.4 °F 29.97 in Calm   7.0 mph 33 % 0.00 in 935.00 W/m2
13:32 86.6 °F 55.7 °F 29.97 in Calm   10.0 mph 35 % 0.00 in 937.00 W/m2
13:37 86.6 °F 53.3 °F 29.97 in SW 8.0 mph 10.0 mph 32 % 0.00 in 935.00 W/m2
13:42 86.8 °F 53.4 °F 29.97 in SW 1.0 mph 11.0 mph 32 % 0.00 in 932.00 W/m2
13:47 87.1 °F 54.5 °F 29.96 in SSW 4.0 mph 5.0 mph 33 % 0.00 in 928.00 W/m2
13:52 86.9 °F 54.4 °F 29.96 in Calm   7.0 mph 33 % 0.00 in 921.00 W/m2
13:57 86.8 °F 54.3 °F 29.96 in SW 7.0 mph 10.0 mph 33 % 0.00 in 919.00 W/m2
14:02 86.6 °F 54.1 °F 29.96 in Calm   1.0 mph 33 % 0.00 in 918.00 W/m2
14:07 86.6 °F 55.7 °F 29.96 in Calm     35 % 0.00 in 912.00 W/m2
14:12 86.6 °F 54.1 °F 29.96 in Calm   11.0 mph 33 % 0.00 in 905.00 W/m2
14:17 87.0 °F 54.5 °F 29.96 in SW 5.0 mph 8.0 mph 33 % 0.00 in 898.00 W/m2
14:18 87.0 °F 54.5 °F 29.96 in WSW 7.0 mph 8.0 mph 33 % 0.00 in 898.00 W/m2
14:23 86.6 °F 54.1 °F 29.96 in Calm   7.0 mph 33 % 0.00 in 893.00 W/m2
14:28 86.1 °F 53.7 °F 29.96 in SW 11.0 mph 15.0 mph 33 % 0.00 in 891.00 W/m2
14:33 86.3 °F 54.7 °F 29.95 in Calm   8.0 mph 34 % 0.00 in 882.00 W/m2
14:38 86.6 °F 54.9 °F 29.95 in SSW 3.0 mph 7.0 mph 34 % 0.00 in 877.00 W/m2
14:43 86.8 °F 55.1 °F 29.95 in South 6.0 mph 9.0 mph 34 % 0.00 in 870.00 W/m2
14:48 87.0 °F 55.3 °F 29.95 in Calm   12.0 mph 34 % 0.00 in 863.00 W/m2
14:53 87.1 °F 55.4 °F 29.95 in Calm   11.0 mph 34 % 0.00 in 854.00 W/m2
15:03 87.4 °F 54.8 °F 29.95 in SW 7.0 mph 13.0 mph 33 % 0.00 in 837.00 W/m2
15:08 87.3 °F 54.7 °F 29.95 in SW 6.0 mph 8.0 mph 33 % 0.00 in 828.00 W/m2
15:13 86.9 °F 54.4 °F 29.94 in Calm   8.0 mph 33 % 0.00 in 821.00 W/m2
15:18 86.5 °F 54.8 °F 29.94 in West 4.0 mph 8.0 mph 34 % 0.00 in 816.00 W/m2
15:23 86.2 °F 52.9 °F 29.94 in Calm   8.0 mph 32 % 0.00 in 802.00 W/m2
15:28 86.0 °F 54.4 °F 29.94 in West 2.0 mph 8.0 mph 34 % 0.00 in 791.00 W/m2
15:33 85.6 °F 54.0 °F 29.94 in WSW 1.0 mph 8.0 mph 34 % 0.00 in 782.00 W/m2
15:38 85.6 °F 54.0 °F 29.94 in SW 2.0 mph 8.0 mph 34 % 0.00 in 772.00 W/m2
15:43 85.7 °F 54.1 °F 29.94 in WSW 4.0 mph 10.0 mph 34 % 0.00 in 758.00 W/m2
15:48 85.7 °F 54.1 °F 29.94 in WSW 6.0 mph 8.0 mph 34 % 0.00 in 751.00 W/m2
15:53 85.6 °F 54.0 °F 29.94 in SW 1.0 mph 9.0 mph 34 % 0.00 in 738.00 W/m2
15:58 85.6 °F 54.0 °F 29.94 in Calm   5.0 mph 34 % 0.00 in 728.00 W/m2
16:03 85.6 °F 54.8 °F 29.94 in SSW 6.0 mph 6.0 mph 35 % 0.00 in 719.00 W/m2
16:08 85.6 °F 54.0 °F 29.94 in Calm   9.0 mph 34 % 0.00 in 705.00 W/m2
16:13 85.7 °F 54.9 °F 29.93 in Calm   1.0 mph 35 % 0.00 in 691.00 W/m2
16:18 85.5 °F 54.8 °F 29.94 in Calm   5.0 mph 35 % 0.00 in 675.00 W/m2
16:23 85.5 °F 54.8 °F 29.93 in WSW 2.0 mph 9.0 mph 35 % 0.00 in 664.00 W/m2
16:28 85.4 °F 55.4 °F 29.93 in Calm   2.0 mph 36 % 0.00 in 652.00 W/m2
16:33 85.2 °F 54.5 °F 29.93 in Calm   4.0 mph 35 % 0.00 in 638.00 W/m2
16:38 85.1 °F 55.2 °F 29.93 in Calm   2.0 mph 36 % 0.00 in 624.00 W/m2
16:43 84.9 °F 54.2 °F 29.93 in SW 5.0 mph 7.0 mph 35 % 0.00 in 613.00 W/m2
16:48 84.8 °F 55.7 °F 29.93 in SW 6.0 mph 6.0 mph 37 % 0.00 in 599.00 W/m2
16:53 84.8 °F 54.1 °F 29.93 in West 3.0 mph 9.0 mph 35 % 0.00 in 587.00 W/m2
16:58 84.8 °F 54.9 °F 29.93 in WSW 4.0 mph 8.0 mph 36 % 0.00 in 568.00 W/m2
17:03 84.8 °F 53.3 °F 29.93 in Calm   3.0 mph 34 % 0.00 in 555.00 W/m2
17:08 84.9 °F 55.0 °F 29.93 in SW 8.0 mph 9.0 mph 36 % 0.00 in 543.00 W/m2
17:13 84.9 °F 53.4 °F 29.92 in Calm   2.0 mph 34 % 0.00 in 527.00 W/m2
17:18 84.9 °F 53.4 °F 29.92 in SW 1.0 mph 8.0 mph 34 % 0.00 in 515.00 W/m2
17:24 84.8 °F 54.1 °F 29.93 in West 5.0 mph 7.0 mph 35 % 0.00 in 497.00 W/m2
17:29 84.6 °F 53.2 °F 29.92 in West 5.0 mph 5.0 mph 34 % 0.00 in 485.00 W/m2
17:34 84.6 °F 54.0 °F 29.92 in Calm   3.0 mph 35 % 0.00 in 468.00 W/m2
17:39 84.6 °F 54.7 °F 29.92 in Calm   6.0 mph 36 % 0.00 in 454.00 W/m2
17:44 84.5 °F 53.1 °F 29.92 in Calm   8.0 mph 34 % 0.00 in 438.00 W/m2
17:49 84.2 °F 52.8 °F 29.92 in Calm   6.0 mph 34 % 0.00 in 422.00 W/m2
17:54 84.1 °F 52.7 °F 29.92 in SW 6.0 mph 8.0 mph 34 % 0.00 in 404.00 W/m2
17:59 84.1 °F 51.9 °F 29.92 in Calm   7.0 mph 33 % 0.00 in 388.00 W/m2
18:04 84.0 °F 53.4 °F 29.92 in Calm   1.0 mph 35 % 0.00 in 373.00 W/m2
18:09 83.8 °F 52.5 °F 29.92 in Calm   8.0 mph 34 % 0.00 in 359.00 W/m2
18:14 83.8 °F 54.0 °F 29.92 in Calm   5.0 mph 36 % 0.00 in 341.00 W/m2
18:19 83.6 °F 54.6 °F 29.92 in Calm   6.0 mph 37 % 0.00 in 325.00 W/m2
18:24 83.4 °F 54.4 °F 29.92 in SW 3.0 mph 3.0 mph 37 % 0.00 in 308.00 W/m2
18:29 83.0 °F 53.3 °F 29.92 in Calm   5.0 mph 36 % 0.00 in 297.00 W/m2
18:34 82.9 °F 54.0 °F 29.92 in SW 4.0 mph 8.0 mph 37 % 0.00 in 279.00 W/m2
18:39 82.8 °F 54.6 °F 29.92 in Calm   8.0 mph 38 % 0.00 in 264.00 W/m2
18:44 82.7 °F 54.5 °F 29.92 in Calm   8.0 mph 38 % 0.00 in 248.00 W/m2
18:49 82.5 °F 55.1 °F 29.92 in Calm   4.0 mph 39 % 0.00 in 230.00 W/m2
18:54 82.4 °F 55.0 °F 29.92 in Calm   4.0 mph 39 % 0.00 in 218.00 W/m2
18:59 82.3 °F 54.9 °F 29.92 in Calm   2.0 mph 39 % 0.00 in 199.00 W/m2
19:04 82.1 °F 55.4 °F 29.92 in Calm   5.0 mph 40 % 0.00 in 185.00 W/m2
19:09 81.8 °F 55.8 °F 29.92 in Calm   5.0 mph 41 % 0.00 in 171.00 W/m2
19:14 81.5 °F 56.2 °F 29.93 in Calm   3.0 mph 42 % 0.00 in 151.00 W/m2
19:19 81.1 °F 55.9 °F 29.93 in Calm   6.0 mph 42 % 0.00 in 132.00 W/m2
19:24 80.6 °F 56.1 °F 29.93 in West 3.0 mph 5.0 mph 43 % 0.00 in 116.00 W/m2
19:29 80.3 °F 55.8 °F 29.93 in Calm   2.0 mph 43 % 0.00 in 98.00 W/m2
19:35 79.8 °F 56.0 °F 29.93 in West 3.0 mph 3.0 mph 44 % 0.00 in 83.00 W/m2
19:40 79.5 °F 55.7 °F 29.93 in Calm   1.0 mph 44 % 0.00 in 67.00 W/m2
19:45 79.2 °F 55.4 °F 29.93 in Calm   4.0 mph 44 % 0.00 in 54.00 W/m2
19:50 78.8 °F 55.7 °F 29.93 in Calm   1.0 mph 45 % 0.00 in 44.00 W/m2
19:55 78.2 °F 55.8 °F 29.93 in Calm   1.0 mph 46 % 0.00 in 33.00 W/m2
20:00 77.8 °F 56.0 °F 29.93 in Calm   1.0 mph 47 % 0.00 in 26.00 W/m2
20:05 77.3 °F 55.5 °F 29.93 in Calm   1.0 mph 47 % 0.00 in 19.00 W/m2
20:10 77.0 °F 55.8 °F 29.93 in Calm   1.0 mph 48 % 0.00 in 16.00 W/m2
20:15 76.6 °F 56.0 °F 29.93 in Calm   1.0 mph 49 % 0.00 in 14.00 W/m2
20:20 76.1 °F 55.6 °F 29.93 in Calm   1.0 mph 49 % 0.00 in 12.00 W/m2
20:25 75.6 °F 55.7 °F 29.93 in Calm     50 % 0.00 in 9.00 W/m2
20:30 75.3 °F 54.8 °F 29.93 in Calm   1.0 mph 49 % 0.00 in 7.00 W/m2
20:35 75.1 °F 54.7 °F 29.93 in Calm     49 % 0.00 in 5.00 W/m2
20:40 74.7 °F 54.8 °F 29.93 in Calm     50 % 0.00 in 0.00 W/m2
20:45 74.3 °F 55.0 °F 29.93 in Calm     51 % 0.00 in 0.00 W/m2
20:50 74.0 °F 54.2 °F 29.93 in Calm     50 % 0.00 in 0.00 W/m2
20:55 73.7 °F 53.9 °F 29.94 in Calm     50 % 0.00 in 0.00 W/m2
20:56 73.7 °F 53.9 °F 29.94 in Calm     50 % 0.00 in 0.00 W/m2
21:01 73.4 °F 53.7 °F 29.94 in Calm     50 % 0.00 in 0.00 W/m2
21:06 73.2 °F 53.5 °F 29.94 in Calm     50 % 0.00 in 0.00 W/m2
21:11 73.1 °F 53.4 °F 29.94 in Calm     50 % 0.00 in 0.00 W/m2
21:16 73.0 °F 53.3 °F 29.94 in Calm     50 % 0.00 in 0.00 W/m2
21:21 72.9 °F 53.2 °F 29.94 in Calm     50 % 0.00 in 0.00 W/m2
21:26 72.6 °F 51.8 °F 29.95 in Calm   1.0 mph 48 % 0.00 in 0.00 W/m2
21:31 72.3 °F 51.0 °F 29.95 in Calm     47 % 0.00 in 0.00 W/m2
21:36 72.1 °F 51.3 °F 29.95 in Calm     48 % 0.00 in 0.00 W/m2
21:41 71.9 °F 50.6 °F 29.95 in Calm     47 % 0.00 in 0.00 W/m2
21:46 71.7 °F 50.4 °F 29.95 in Calm     47 % 0.00 in 0.00 W/m2
21:51 71.6 °F 49.8 °F 29.95 in Calm     46 % 0.00 in 0.00 W/m2
21:56 71.4 °F 49.6 °F 29.95 in Calm     46 % 0.00 in 0.00 W/m2
22:01 71.2 °F 48.8 °F 29.95 in Calm     45 % 0.00 in 0.00 W/m2
22:06 71.0 °F 48.6 °F 29.95 in Calm     45 % 0.00 in 0.00 W/m2
22:11 70.9 °F 48.5 °F 29.95 in Calm     45 % 0.00 in 0.00 W/m2
22:16 70.8 °F 48.4 °F 29.95 in Calm     45 % 0.00 in 0.00 W/m2
22:21 70.6 °F 48.2 °F 29.95 in Calm   1.0 mph 45 % 0.00 in 0.00 W/m2
22:25 70.6 °F 48.2 °F 29.95 in Calm   1.0 mph 45 % 0.00 in 0.00 W/m2
22:30 70.5 °F 48.2 °F 29.95 in Calm   4.0 mph 45 % 0.00 in 0.00 W/m2
22:35 70.4 °F 47.5 °F 29.95 in Calm   3.0 mph 44 % 0.00 in 0.00 W/m2
22:40 70.3 °F 48.0 °F 29.95 in Calm   4.0 mph 45 % 0.00 in 0.00 W/m2
22:45 70.3 °F 49.1 °F 29.95 in Calm   4.0 mph 47 % 0.00 in 0.00 W/m2
22:50 70.2 °F 50.2 °F 29.94 in SW 1.0 mph 5.0 mph 49 % 0.00 in 0.00 W/m2
22:55 70.2 °F 50.7 °F 29.94 in SE 5.0 mph 9.0 mph 50 % 0.00 in 0.00 W/m2
22:58 70.1 °F 50.6 °F 29.94 in East 2.0 mph 8.0 mph 50 % 0.00 in 0.00 W/m2
23:03 70.1 °F 51.2 °F 29.94 in Calm   11.0 mph 51 % 0.00 in 0.00 W/m2
23:08 70.1 °F 51.7 °F 29.94 in Calm   11.0 mph 52 % 0.00 in 0.00 W/m2
23:13 70.1 °F 52.2 °F 29.94 in Calm   7.0 mph 53 % 0.00 in 0.00 W/m2
23:18 70.1 °F 52.2 °F 29.94 in East 2.0 mph 11.0 mph 53 % 0.00 in 0.00 W/m2
23:23 70.2 °F 52.3 °F 29.94 in ESE 4.0 mph 8.0 mph 53 % 0.00 in 0.00 W/m2
23:28 70.3 °F 52.4 °F 29.93 in East 5.0 mph 8.0 mph 53 % 0.00 in 0.00 W/m2
23:33 70.4 °F 53.0 °F 29.93 in East 1.0 mph 14.0 mph 54 % 0.00 in 0.00 W/m2
23:38 70.5 °F 52.6 °F 29.93 in Calm   15.0 mph 53 % 0.00 in 0.00 W/m2
23:43 70.5 °F 52.6 °F 29.93 in East 7.0 mph 12.0 mph 53 % 0.00 in 0.00 W/m2
23:48 70.6 °F 52.7 °F 29.93 in East 7.0 mph 12.0 mph 53 % 0.00 in 0.00 W/m2
23:53 70.6 °F 52.7 °F 29.93 in East 12.0 mph 12.0 mph 53 % 0.00 in 0.00 W/m2
23:58 70.7 °F 52.8 °F 29.93 in ESE 9.0 mph 15.0 mph 53 % 0.00 in 0.00 W/m2
Juneau County Weather
Compliments of Weather Underground - 4.5 mb
 WU-history PHP script courtesy of   Juneau County Weather.
powered by Cumulus v1.9.3 (1059)
Ambient Weather VWS v14.00
Top Contact Website Map Copyright © 2007 - 2018 Foresthillweather.com Never base important decisions on this or any weather information obtained from the Internet